• In United Kingdom
  • List of Countries
  • For 7 days
  • Water Temperature
  • Satellite Maps
  • Weather Map
  • Weather Widgets
  • user-avatar
    Login

    Hourly Weather Bregenz

    Today, 23 October, Monday

    Time Temperature Precipitation Wind Pressure Humidity
    00:00 -1°C° 0.6 mm 3 mps 646 mmHg 95%
    01:00 0°C° 0 mm 3 mps 645 mmHg 95%
    02:00 0°C° 0.7 mm 3 mps 646 mmHg 95%
    03:00 -1°C° 0.7 mm 3 mps 646 mmHg 95%
    04:00 -1°C° 0.7 mm 3 mps 646 mmHg 95%
    05:00 -1°C° 0.7 mm 3 mps 646 mmHg 95%
    06:00 -1°C° 0.7 mm 3 mps 646 mmHg 95%
    07:00 -1°C° 0.7 mm 3 mps 646 mmHg 95%
    08:00 0°C° 0.7 mm 3 mps 646 mmHg 95%
    09:00 0°C° 0.7 mm 3 mps 647 mmHg 94%
    10:00 0°C° 0.7 mm 3 mps 647 mmHg 93%
    11:00 +1°C° 0.7 mm 3 mps 647 mmHg 93%
    12:00 +1°C° 0.7 mm 3 mps 647 mmHg 92%
    13:00 +1°C° 0.7 mm 3 mps 647 mmHg 91%
    14:00 +1°C° 0.6 mm 3 mps 648 mmHg 92%
    15:00 +1°C° 0.6 mm 3 mps 648 mmHg 92%
    16:00 +1°C° 0.6 mm 3 mps 648 mmHg 92%
    17:00 +1°C° 0.4 mm 3 mps 648 mmHg 93%
    18:00 +1°C° 0.4 mm 3 mps 648 mmHg 94%
    19:00 +1°C° 0.4 mm 3 mps 649 mmHg 95%
    20:00 +1°C° 0.3 mm 2 mps 649 mmHg 95%
    21:00 +1°C° 0.3 mm 2 mps 649 mmHg 95%
    22:00 +1°C° 0.3 mm 2 mps 650 mmHg 95%
    23:00 +1°C° 0.3 mm 2 mps 650 mmHg 94%

    Tomorrow, 24 October, Tuesday

    Time Temperature Precipitation Wind Pressure Humidity
    00:00 +1°C° 0.3 mm 2 mps 650 mmHg 94%
    01:00 -1°C° 0.3 mm 2 mps 650 mmHg 94%
    02:00 -1°C° 0 mm 2 mps 650 mmHg 93%
    03:00 -1°C° 0 mm 2 mps 650 mmHg 93%
    04:00 -2°C° 0 mm 2 mps 650 mmHg 92%
    05:00 -1°C° 0 mm 2 mps 650 mmHg 91%
    06:00 -1°C° 0 mm 2 mps 650 mmHg 91%
    07:00 -1°C° 0 mm 2 mps 650 mmHg 90%
    08:00 +1°C° 0 mm 2 mps 650 mmHg 89%
    09:00 +4°C° 0 mm 1 mps 651 mmHg 88%
    10:00 +5°C° 0 mm 1 mps 651 mmHg 88%
    11:00 +7°C° 0 mm 1 mps 651 mmHg 84%
    12:00 +8°C° 0 mm 1 mps 652 mmHg 81%
    13:00 +9°C° 0 mm 1 mps 652 mmHg 77%
    14:00 +9°C° 0 mm 1 mps 652 mmHg 80%
    15:00 +9°C° 0 mm 1 mps 651 mmHg 83%
    16:00 +8°C° 0 mm 1 mps 651 mmHg 85%
    17:00 +7°C° 0 mm 1 mps 651 mmHg 88%
    18:00 +5°C° 0 mm 1 mps 651 mmHg 90%
    19:00 +3°C° 0 mm 2 mps 651 mmHg 92%
    20:00 +2°C° 0 mm 2 mps 651 mmHg 91%
    21:00 +2°C° 0 mm 2 mps 651 mmHg 90%
    22:00 +2°C° 0 mm 2 mps 651 mmHg 88%
    23:00 +2°C° 0 mm 2 mps 651 mmHg 87%

    Day after tomorrow, 25 October, Wednesday

    Time Temperature Precipitation Wind Pressure Humidity
    00:00 +2°C° 0 mm 2 mps 651 mmHg 86%
    01:00 +2°C° 0 mm 2 mps 651 mmHg 84%
    02:00 +2°C° 0 mm 2 mps 651 mmHg 83%
    03:00 +2°C° 0 mm 2 mps 651 mmHg 82%
    04:00 +3°C° 0 mm 2 mps 650 mmHg 81%
    05:00 +4°C° 0 mm 1 mps 650 mmHg 80%
    06:00 +4°C° 0 mm 1 mps 650 mmHg 80%
    07:00 +4°C° 0 mm 1 mps 650 mmHg 79%
    08:00 +6°C° 0 mm 1 mps 651 mmHg 78%
    09:00 +8°C° 0 mm 1 mps 652 mmHg 77%
    10:00 +9°C° 0 mm 1 mps 652 mmHg 77%
    11:00 +11°C° 0 mm 1 mps 653 mmHg 74%
    12:00 +11°C° 0 mm 0 mps 653 mmHg 72%
    13:00 +12°C° 0 mm 0 mps 653 mmHg 70%
    14:00 +11°C° 0 mm 0 mps 653 mmHg 73%
    15:00 +11°C° 0 mm 0 mps 653 mmHg 77%
    16:00 +11°C° 0 mm 1 mps 653 mmHg 81%
    17:00 +10°C° 0 mm 1 mps 653 mmHg 81%
    18:00 +8°C° 0 mm 1 mps 652 mmHg 82%
    19:00 +6°C° 0 mm 2 mps 652 mmHg 83%
    20:00 +5°C° 0 mm 2 mps 652 mmHg 82%
    21:00 +5°C° 0 mm 2 mps 652 mmHg 80%
    22:00 +5°C° 0 mm 2 mps 652 mmHg 79%
    23:00 +5°C° 0 mm 2 mps 652 mmHg 77%

    26 October, Thursday

    Time Temperature Precipitation Wind Pressure Humidity
    00:00 +5°C° 0 mm 2 mps 652 mmHg 76%
    01:00 +5°C° 0 mm 2 mps 653 mmHg 75%
    02:00 +5°C° 0 mm 2 mps 652 mmHg 74%
    03:00 +4°C° 0 mm 2 mps 652 mmHg 73%
    04:00 +4°C° 0 mm 2 mps 652 mmHg 73%
    05:00 +4°C° 0 mm 2 mps 652 mmHg 72%
    06:00 +4°C° 0 mm 2 mps 652 mmHg 71%
    07:00 +4°C° 0 mm 2 mps 652 mmHg 70%
    08:00 +6°C° 0 mm 2 mps 653 mmHg 70%
    09:00 +9°C° 0 mm 1 mps 653 mmHg 69%
    10:00 +12°C° 0 mm 1 mps 654 mmHg 68%
    11:00 +13°C° 0 mm 1 mps 654 mmHg 65%
    12:00 +14°C° 0 mm 1 mps 654 mmHg 63%
    13:00 +15°C° 0 mm 1 mps 654 mmHg 60%
    14:00 +14°C° 0 mm 1 mps 654 mmHg 65%
    15:00 +13°C° 0 mm 1 mps 654 mmHg 69%
    16:00 +13°C° 0 mm 1 mps 653 mmHg 74%
    17:00 +11°C° 0 mm 1 mps 653 mmHg 74%
    18:00 +9°C° 0 mm 1 mps 653 mmHg 75%
    19:00 +7°C° 0 mm 2 mps 652 mmHg 75%
    20:00 +6°C° 0 mm 2 mps 652 mmHg 74%
    21:00 +6°C° 0 mm 2 mps 652 mmHg 73%
    22:00 +6°C° 0 mm 2 mps 652 mmHg 71%
    23:00 +6°C° 0 mm 2 mps 652 mmHg 71%

    27 October, Friday

    Time Temperature Precipitation Wind Pressure Humidity
    00:00 +5°C° 0 mm 2 mps 652 mmHg 71%
    01:00 +5°C° 0 mm 2 mps 651 mmHg 71%
    02:00 +5°C° 0 mm 2 mps 651 mmHg 72%
    03:00 +5°C° 0 mm 2 mps 651 mmHg 73%
    04:00 +5°C° 0 mm 2 mps 651 mmHg 73%
    05:00 +5°C° 0 mm 2 mps 650 mmHg 74%
    06:00 +4°C° 0 mm 2 mps 650 mmHg 75%
    07:00 +4°C° 0 mm 2 mps 650 mmHg 76%
    08:00 +6°C° 0 mm 2 mps 650 mmHg 74%
    09:00 +7°C° 0 mm 2 mps 650 mmHg 73%
    10:00 +9°C° 0 mm 2 mps 651 mmHg 72%
    11:00 +10°C° 0 mm 3 mps 651 mmHg 71%
    12:00 +10°C° 0 mm 4 mps 651 mmHg 70%
    13:00 +11°C° 0 mm 4 mps 650 mmHg 69%
    14:00 +8°C° 0.8 mm 4 mps 650 mmHg 77%
    15:00 +8°C° 0.8 mm 3 mps 650 mmHg 85%
    16:00 +7°C° 0.8 mm 3 mps 649 mmHg 93%
    17:00 +5°C° 1.4 mm 3 mps 649 mmHg 94%
    18:00 +6°C° 1.4 mm 2 mps 650 mmHg 95%
    19:00 +5°C° 1.4 mm 2 mps 650 mmHg 97%
    20:00 +4°C° 1 mm 2 mps 650 mmHg 97%
    21:00 +4°C° 1 mm 2 mps 650 mmHg 97%
    22:00 +3°C° 1 mm 2 mps 650 mmHg 97%
    23:00 +2°C° 0.1 mm 2 mps 650 mmHg 97%

    28 October, Saturday

    Time Temperature Precipitation Wind Pressure Humidity
    00:00 +3°C° 0.1 mm 1 mps 650 mmHg 97%
    01:00 +2°C° 0.1 mm 1 mps 650 mmHg 97%
    02:00 +2°C° 0 mm 1 mps 650 mmHg 96%
    03:00 +1°C° 0 mm 1 mps 650 mmHg 96%
    04:00 +1°C° 0 mm 1 mps 650 mmHg 96%
    05:00 +1°C° 0 mm 1 mps 650 mmHg 96%
    06:00 0°C° 0 mm 1 mps 650 mmHg 95%
    07:00 0°C° 0 mm 1 mps 650 mmHg 95%
    08:00 +2°C° 0 mm 1 mps 650 mmHg 90%
    09:00 +2°C° 0 mm 2 mps 650 mmHg 85%
    10:00 +4°C° 0 mm 2 mps 650 mmHg 79%
    11:00 +4°C° 0 mm 2 mps 650 mmHg 76%
    12:00 +5°C° 0 mm 2 mps 649 mmHg 72%
    13:00 +4°C° 0 mm 3 mps 649 mmHg 68%
    14:00 +4°C° 0 mm 3 mps 649 mmHg 70%
    15:00 +4°C° 0 mm 3 mps 649 mmHg 72%
    16:00 +3°C° 0 mm 3 mps 648 mmHg 75%
    17:00 +3°C° 0 mm 3 mps 649 mmHg 77%
    18:00 +2°C° 0 mm 3 mps 649 mmHg 79%
    19:00 +1°C° 0 mm 3 mps 649 mmHg 82%
    20:00 +1°C° 0 mm 3 mps 649 mmHg 82%
    21:00 +2°C° 0 mm 2 mps 649 mmHg 83%
    22:00 +2°C° 0 mm 2 mps 649 mmHg 83%
    23:00 +2°C° 0 mm 2 mps 649 mmHg 83%

    29 October, Sunday

    Time Temperature Precipitation Wind Pressure Humidity
    00:00 +2°C° 0 mm 2 mps 649 mmHg 83%
    01:00 +1°C° 0 mm 2 mps 649 mmHg 83%
    02:00 +1°C° 0 mm 2 mps 648 mmHg 83%
    03:00 +2°C° 0 mm 1 mps 648 mmHg 83%
    04:00 +1°C° 0 mm 1 mps 648 mmHg 83%
    05:00 +1°C° 0 mm 1 mps 648 mmHg 83%
    06:00 +1°C° 0 mm 1 mps 648 mmHg 82%
    07:00 +1°C° 0 mm 1 mps 648 mmHg 82%
    08:00 +2°C° 0 mm 1 mps 649 mmHg 77%
    09:00 +4°C° 0 mm 1 mps 649 mmHg 73%
    10:00 +6°C° 0 mm 1 mps 649 mmHg 68%
    11:00 +6°C° 0 mm 1 mps 649 mmHg 68%
    12:00 +7°C° 0 mm 1 mps 649 mmHg 67%
    13:00 +8°C° 0 mm 1 mps 649 mmHg 67%
    14:00 +7°C° 0 mm 1 mps 648 mmHg 71%
    15:00 +7°C° 0 mm 1 mps 648 mmHg 74%
    16:00 +6°C° 0 mm 1 mps 648 mmHg 77%
    17:00 +5°C° 0 mm 1 mps 648 mmHg 82%
    18:00 +3°C° 0 mm 1 mps 648 mmHg 87%
    19:00 +2°C° 0 mm 1 mps 648 mmHg 92%
    20:00 +2°C° 0 mm 1 mps 648 mmHg 93%
    21:00 +2°C° 0 mm 1 mps 648 mmHg 93%
    22:00 +1°C° 0 mm 1 mps 648 mmHg 94%
    23:00 +1°C° 0 mm 1 mps 648 mmHg 93%
    Show more